Tracking 20093 objects as of 16-Dec-2019
HD Live streaming from Space Station
objects crossing your sky now

FLOCK 3P 57

Track FLOCK 3P 57 now!
10-day predictions
FLOCK 3P 57 is classified as:


NORAD ID: 41978
Int'l Code: 2017-008AG
Perigee: 490.5 km
Apogee: 499.9 km
Inclination: 97.4 °
Period: 94.4 minutes
Semi major axis: 6866 km
RCS: Unknown
Launch date: February 15, 2017
Source: United States (US)
Launch site: SRIHARIKOTA (SRI)
aabbcc
Your satellite tracking list
Your tracking list is empty




NASA's NSSDC Master Catalog

Two Line Element Set (TLE):
1 41978U 17008AG  19349.14642670  .00000966  00000-0  40464-4 0  9994
2 41978  97.3882  54.2302 0006839 218.0747 142.0009 15.25907717157169
Source of the keplerian elements: AFSPC